Overview Statistics Trail Chart Weather Telemetry Raw packets
 

This is the latest recevied weather packets stored in our database for station/object SV9TNF-52. If no packets are shown the sender has not sent any weather packets the latest 10 day(s).

<< 96 97 98 99 100 101 102 >>
Time Temp. Humidity Pressure Rain* Wind** Luminosity Snow
1787961396 25.56° C 70% 1020 hPa 0 mm 6.26 m/s, 202° - -
1787961096 25.56° C 70% 1020 hPa 0 mm 6.26 m/s, 162° - -
1787960796 26.11° C 69% 1020.3 hPa 0 mm 5.36 m/s, 159° - -
1787960495 26.67° C 69% 1020.3 hPa 0 mm 4.02 m/s, 87° - -
1787960195 26.67° C 69% 1020.3 hPa 0 mm 4.02 m/s, 158° - -
1787959895 26.11° C 68% 1020.3 hPa 0 mm 1.34 m/s, 194° - -
1787959595 25.56° C 67% 1020.3 hPa 0 mm 1.34 m/s, 228° - -
1787959295 26.11° C 66% 1020.3 hPa 0 mm 0.45 m/s, 254° - -
1787958995 26.11° C 66% 1020.3 hPa 0 mm 0.89 m/s, 267° - -
1787958695 26.11° C 65% 1020.3 hPa 0 mm 0 m/s - -
1787958395 26.67° C 65% 1020.3 hPa 0 mm 2.24 m/s, 176° - -
1787958094 26.67° C 65% 1020.3 hPa 0 mm 1.79 m/s, 198° - -
1787957795 26.67° C 65% 1020.3 hPa 0 mm 1.79 m/s, 155° - -
1787957494 26.67° C 64% 1020.3 hPa 0 mm 1.79 m/s, 163° - -
1787957194 26.67° C 64% 1020.3 hPa 0 mm 6.71 m/s, 182° - -
1787956894 26.67° C 64% 1020.3 hPa 0 mm 4.92 m/s, 171° - -
1787956594 26.11° C 66% 1020.3 hPa 0 mm 7.15 m/s, 156° - -
1787956294 26.11° C 66% 1020.3 hPa 0 mm 5.81 m/s, 142° - -
1787955994 26.11° C 67% 1020.3 hPa 0 mm 7.15 m/s, 122° - -
1787955694 26.11° C 67% 1020.3 hPa 0 mm 4.92 m/s, 144° - -
1787955394 26.11° C 68% 1020.3 hPa 0 mm 5.36 m/s, 152° - -
1787955094 26.11° C 68% 1020.3 hPa 0 mm 0 m/s - -
1787954794 26.11° C 68% 1020.3 hPa 0 mm 3.58 m/s, 53° - -
1787954493 26.11° C 68% 1020.3 hPa 0 mm 4.02 m/s, 94° - -
1787954193 26.11° C 67% 1020.3 hPa 0 mm 6.26 m/s, 107° - -

* Rain latest hour (hover to see other rain measurements)
** Current wind speed in m/s (hover to see current wind gust speed)